Cyclone, PA

7:20 PM EST on February 14, 2016 (GMT -0500)
Bradford Regional

Weather History for KBFD - September, 2012

Change the Weather History Date:

Monday, September 24, 2012

  Actual Average Record
Temperature  
Mean Temperature 47 °F 54 °F  
Max Temperature 55 °F 65 °F 82 °F (1961)
Min Temperature 39 °F 42 °F 24 °F (1974)
Degree Days  
Heating Degree Days 18 7  
Month to date heating degree days 96  
Since 1 July heating degree days 249  
Cooling Degree Days 0 0  
Month to date cooling degree days 13  
Year to date cooling degree days 190  
Moisture  
Dew Point 37 °F    
Average Humidity 74    
Maximum Humidity 93    
Minimum Humidity 45    
Precipitation  
Precipitation 0.00 in 0.13 in 1.37 in (1977)
Month to date precipitation 3.14  
Year to date precipitation 33.09  
Sea Level Pressure  
Sea Level Pressure 30.16 in    
Wind  
Wind Speed 4 mph (WSW)    
Max Wind Speed 12 mph    
Max Gust Speed -    
Visibility 9 miles    
Events      
T = Trace of Precipitation, MM = Missing Value Source: NWS Daily Summary

Daily Weather History Graph

Daily Weather History Graph

Search for Another Location

Airport or City:

Trip Planner

Search our weather history database for the weather conditions in past years. The results will help you decide how hot, cold, wet, or windy it might be!

Date:

Astronomy

Sep. 24, 2012 Rise Set
Actual Time 7:04 AM EDT 7:07 PM EDT
Civil Twilight 6:36 AM EDT 7:35 PM EDT
Nautical Twilight 6:04 AM EDT 8:07 PM EDT
Astronomical Twilight 5:31 AM EDT 8:40 PM EDT
Moon 3:56 PM EDT (9/24) 1:14 AM EDT (9/24)
Length of Visible Light 12h 58m
Length of Day
12h 02m
Waxing Gibbous, 70% of the Moon is Illuminated
Sep 24
Waxing Gibbous
Sep 29
Full
Oct 8
Last Quarter
Oct 15
New
Oct 21
First Quarter

Hourly Weather History & Observations

Time (EDT) Temp. Windchill Dew Point Humidity Pressure Visibility Wind Dir Wind Speed Gust Speed Precip Events Conditions
12:53 AM 42.1 °F - 37.9 °F 85% 30.17 in 10.0 mi Calm Calm - N/A   Mostly Cloudy
1:53 AM 43.0 °F 41.3 °F 39.0 °F 86% 30.16 in 10.0 mi SW 3.5 mph - N/A   Overcast
2:53 AM 43.0 °F 41.3 °F 39.0 °F 86% 30.16 in 10.0 mi West 3.5 mph - N/A   Overcast
3:53 AM 43.0 °F 40.3 °F 39.0 °F 86% 30.17 in 10.0 mi West 4.6 mph - N/A   Overcast
4:53 AM 42.1 °F 39.2 °F 39.0 °F 89% 30.16 in 10.0 mi SW 4.6 mph - 0.00 in   Overcast
5:53 AM 42.1 °F 40.2 °F 39.0 °F 89% 30.16 in 10.0 mi Variable 3.5 mph - N/A   Overcast
6:53 AM 41.0 °F - 37.9 °F 89% 30.17 in 10.0 mi Calm Calm - N/A   Partly Cloudy
7:01 AM 39.9 °F - 37.0 °F 89% 30.15 in 10.0 mi Calm Calm - N/A   Scattered Clouds
7:53 AM 41.0 °F 39.0 °F 37.9 °F 89% 30.18 in 10.0 mi South 3.5 mph - N/A   Clear
8:03 AM 41.0 °F - 37.9 °F 89% 30.16 in 10.0 mi Calm Calm - N/A   Scattered Clouds
8:08 AM 39.9 °F 37.8 °F 37.0 °F 89% 30.16 in 2.5 mi Variable 3.5 mph - N/A   Mostly Cloudy
8:12 AM 39.9 °F 37.8 °F 37.0 °F 89% 30.17 in 0.8 mi West 3.5 mph - N/A   Mist
8:31 AM 39.9 °F 35.8 °F 37.9 °F 93% 30.17 in 2.0 mi SW 5.8 mph - N/A   Overcast
8:40 AM 41.0 °F 38.0 °F 37.9 °F 89% 30.18 in 6.0 mi Variable 4.6 mph - N/A   Overcast
8:53 AM 41.0 °F 37.1 °F 37.9 °F 89% 30.21 in 10.0 mi West 5.8 mph - N/A   Overcast
9:08 AM 42.1 °F 38.4 °F 39.0 °F 89% 30.19 in 10.0 mi Variable 5.8 mph - N/A   Overcast
9:30 AM 43.0 °F 38.8 °F 37.9 °F 82% 30.19 in 10.0 mi WSW 6.9 mph - N/A   Mostly Cloudy
9:53 AM 45.0 °F 42.6 °F 39.0 °F 80% 30.22 in 10.0 mi Variable 4.6 mph - N/A   Mostly Cloudy
10:17 AM 46.9 °F - 39.0 °F 74% 30.19 in 10.0 mi West 6.9 mph - N/A   Mostly Cloudy
10:44 AM 48.0 °F - 37.9 °F 68% 30.19 in 10.0 mi WSW 8.1 mph - N/A   Mostly Cloudy
10:53 AM 48.9 °F - 39.0 °F 69% 30.21 in 10.0 mi Variable 5.8 mph - N/A   Mostly Cloudy
11:09 AM 48.0 °F - 37.0 °F 66% 30.19 in 10.0 mi West 10.4 mph - N/A   Overcast
11:45 AM 48.9 °F - 37.0 °F 64% 30.18 in 10.0 mi West 8.1 mph - N/A   Mostly Cloudy
11:53 AM 51.1 °F - 36.0 °F 56% 30.20 in 10.0 mi WNW 9.2 mph - N/A   Mostly Cloudy
12:53 PM 51.1 °F - 33.1 °F 50% 30.20 in 10.0 mi West 11.5 mph - N/A   Overcast
1:53 PM 51.1 °F - 34.0 °F 52% 30.17 in 10.0 mi West 6.9 mph - N/A   Overcast
2:53 PM 52.0 °F - 33.1 °F 49% 30.14 in 10.0 mi Variable 6.9 mph - N/A   Mostly Cloudy
3:53 PM 55.0 °F - 35.1 °F 47% 30.11 in 10.0 mi Variable 6.9 mph - N/A   Partly Cloudy
4:53 PM 55.0 °F - 34.0 °F 45% 30.09 in 10.0 mi SW 10.4 mph - N/A   Scattered Clouds
5:53 PM 53.1 °F - 35.1 °F 50% 30.09 in 10.0 mi Variable 5.8 mph - N/A   Scattered Clouds
6:53 PM 50.0 °F - 36.0 °F 59% 30.09 in 10.0 mi South 4.6 mph - N/A   Clear
7:53 PM 48.0 °F - 36.0 °F 63% 30.09 in 10.0 mi South 3.5 mph - N/A   Clear
8:53 PM 46.9 °F - 36.0 °F 66% 30.09 in 10.0 mi South 4.6 mph - N/A   Clear
9:53 PM 46.9 °F - 36.0 °F 66% 30.08 in 10.0 mi South 5.8 mph - N/A   Clear
10:53 PM 46.9 °F - 35.1 °F 63% 30.08 in 10.0 mi Variable 4.6 mph - N/A   Clear
11:53 PM 46.0 °F - 35.1 °F 66% 30.07 in 10.0 mi Calm Calm - N/A   Clear